Regional Weather Roundup
Issued by NWS Sioux Falls, SD

Home | Current Version | Previous Version | Text Only | Print | Product List | Glossary On
Versions: 1 2 3 4 5 6 7 8 9 10 11 12 13 14 15 16 17 18 19 20 21 22 23 24 25 26 27 28 29 30 31 32 33 34 35 36 37 38 39 40 41 42 43 44 45 46 47 48 49 50
000
ASUS43 KFSD 250310
RWRFSD

WEATHER ROUNDUP FOR SE SOUTH DAKOTA/SW MINNESOTA/NW IOWA
NATIONAL WEATHER SERVICE SIOUX FALLS SD
1000 PM CDT TUE APR 24 2018

NOTE: "FAIR" INDICATES FEW OR NO CLOUDS BELOW 12,000 FEET WITH NO
SIGNIFICANT WEATHER AND OR OBSTRUCTIONS TO VISIBILITY.


SDZ038>040-050-052>070-250400-
SOUTHEAST SOUTH DAKOTA

CITY           SKY/WX    TMP DP  RH WIND       PRES   REMARKS
BROOKINGS      CLEAR     39  33  79 N6        30.31R
CHAMBERLAIN    CLOUDY    42  41  98 W7        30.37R
HURON          CLEAR     43  32  65 N7        30.34R
MADISON        FAIR      39  39 100 N9        30.31R
MITCHELL       CLOUDY    44  40  85 NW12      30.34R
SIOUX FALLS    CLOUDY    46  36  68 N13       30.29R
WINNER         CLOUDY    41  36  82 W7        30.38R
YANKTON        LGT RAIN  44  41  89 NW12      30.31R
$$

MNZ071-072-080-081-089-090-097-098-250400-
SOUTHWEST MINNESOTA

CITY           SKY/WX    TMP DP  RH WIND       PRES   REMARKS
FAIRMONT       CLOUDY    45  41  86 N9        30.24R
JACKSON        PTCLDY    41  37  87 NW8       30.25R
LUVERNE        CLOUDY    45  34  65 N10G16    30.28R
MARSHALL       CLEAR     42  35  76 NW12      30.29R
MONTEVIDEO     CLEAR     43  34  70 N9        30.29R
PIPESTONE      CLEAR    N/A N/A N/A N10       30.28R
REDWOOD FALLS  CLEAR     45  35  68 NW8       30.26R
TRACY          CLEAR     44  37  78 N12       30.27R
WINDOM         CLEAR     39  27  60 NW10      30.25R
WORTHINGTON    MOCLDY    41  38  89 N13       30.26R
$$

IAZ001>003-012>014-020>022-031-032-NEZ013-014-SDZ071-250400-
NORTHWEST IOWA

CITY           SKY/WX    TMP DP  RH WIND       PRES   REMARKS
CHEROKEE       CLOUDY    45  44  95 N10       30.25R
DENISON        LGT RAIN  48  46  93 NE12      30.23S
ESTHERVILLE    CLOUDY    44  40  85 N10       30.23R
LE MARS        CLOUDY    45  43  93 N6        30.27R
ORANGE CITY    PTCLDY    46  45  93 N7        30.26S
SHELDON        CLOUDY    45  43  93 N5        30.25R
SIOUX CITY     LGT RAIN  46  43  89 N16       30.26R
SPENCER        CLOUDY    47  40  76 N8        30.24R
STORM LAKE     CLOUDY    45  43  93 N16G22    30.23R
$$

ABBREVIATIONS USED IN REMARKS
   TC - TEMPERATURE IN CELSIUS
  WCI - WIND CHILL INDEX
   HX - HEAT INDEX
  VSB - VISIBILITY





USA.gov is the U.S. government's official web portal to all federal, state and local government web resources and services.